Location: Ottawa
(45.4170°N, 75.7000°W)
Time: 23:11:07
(UTC-04:00)

Amateur Radio Satellites - All Passes

Search period start: 31 March 2015 22:41
Search period end: 01 April 2015 22:41
Location: Ottawa, 45.4170°N, 75.7000°W

Satellite Date Start Highest point End Downlink Frequencies (MHz)
Time Altitude Azimuth
PCSat 31 Mar 22:43:16 22:48:14 35° 46° (NE) 22:53:13 145.827
CUBEBUG 2 31 Mar 22:43:29 22:47:12 31° 265° (W) 22:50:55 437.445
AISAT 31 Mar 22:46:31 22:50:56 68° 74° (ENE) 22:55:21 437.250
CINEMA 3 31 Mar 22:50:23 22:52:59 16° 270° (W) 22:55:25 145.822/145.860
UNISAT 6 31 Mar 22:51:53 22:55:28 23° 92° (E) 22:59:11 437.425
ISS 31 Mar 22:56:20 22:59:34 70° 148° (SSE) 23:02:49 145.825
QB50P1 31 Mar 23:00:09 23:02:00 13° 88° (E) 23:04:03 145.935-145.965
DUCHIFAT 1 31 Mar 23:00:32 23:02:18 13° 88° (E) 23:04:16 145.980
TIGRISAT 31 Mar 23:00:42 23:04:33 27° 94° (E) 23:08:31 435.000
RS-15 31 Mar 23:00:51 23:10:18 31° 346° (NNW) 23:19:58 29.354- 29.394
HUMSAT D 31 Mar 23:05:31 23:09:31 51° 261° (W) 23:13:33 437.325/437.525
UKube-1 31 Mar 23:13:24 23:17:15 30° 264° (W) 23:21:05 .
QB50P2 31 Mar 23:15:00 23:18:00 19° 91° (E) 23:21:08 145.880/145.840
50 SAT 31 Mar 23:21:46 23:25:33 48° 261° (W) 23:29:23 437.505
ESTCUBE 1 31 Mar 23:24:42 23:29:15 85° 79° (ENE) 23:33:51 437.505/2401.250
DX 1 31 Mar 23:27:46 23:31:11 21° 268° (W) 23:34:29 434.975-435.025
BUGSAT 1 31 Mar 23:28:34 23:31:16 18° 91° (E) 23:34:04 437.445
ANTELSAT 31 Mar 23:31:58 23:36:30 56° 100° (E) 23:41:06 437.575/2403.000
YUBILEINY 31 Mar 23:41:45 23:49:08 30° 63° (ENE) 23:56:41 435.215
POPSAT HIP 1 31 Mar 23:42:33 23:46:27 35° 97° (E) 23:50:22 437.405
TISAT 1 31 Mar 23:48:30 23:52:12 31° 69° (ENE) 23:55:58 437.305
NANOSAT C BR1 31 Mar 23:51:55 23:55:59 45° 99° (E) 00:00:04 145.865
POLYITAN 1 31 Mar 23:58:31 00:02:42 54° 100° (E) 00:06:54 437.675
SPROUT 01 Apr 00:08:06 00:12:18 58° 73° (ENE) 00:16:33 437.525
CUBEBUG 1 01 Apr 00:09:44 00:13:50 37° 263° (W) 00:17:55 437.445
SWISSCUBE 01 Apr 00:13:23 00:15:43 14° 59° (ENE) 00:18:16 437.505
BEESAT 01 Apr 00:15:58 00:18:13 14° 59° (ENE) 00:20:40 436.000
VELOX 1 01 Apr 00:19:23 00:22:06 15° 271° (W) 00:24:40 145.980
AISAT 01 Apr 00:25:55 00:28:05 13° 272° (W) 00:30:02 437.250
PCSat 01 Apr 00:26:40 00:31:46 42° 246° (WSW) 00:36:48 145.827
UNISAT 6 01 Apr 00:28:06 00:32:26 42° 289° (WNW) 00:36:49 437.425
ISS 01 Apr 00:33:11 00:36:10 32° 347° (NNW) 00:39:09 145.825
QB50P1 01 Apr 00:34:11 00:38:23 63° 286° (WNW) 00:42:33 145.935-145.965
DUCHIFAT 1 01 Apr 00:34:27 00:38:38 64° 287° (WNW) 00:42:48 145.980
TIGRISAT 01 Apr 00:37:12 00:41:23 35° 291° (WNW) 00:45:35 435.000
QB50P2 01 Apr 00:50:08 00:54:09 42° 289° (WNW) 00:58:10 145.880/145.840
ITUPSAT 1 01 Apr 01:02:11 01:06:27 33° 68° (ENE) 01:10:49 437.325
BUGSAT 1 01 Apr 01:03:11 01:07:00 41° 289° (WNW) 01:10:47 437.445
ESTCUBE 1 01 Apr 01:05:41 01:06:52 11° 275° (W) 01:07:47 437.505/2401.250
ANTELSAT 01 Apr 01:09:43 01:12:56 19° 296° (WNW) 01:16:05 437.575/2403.000
RS-15 01 Apr 01:17:10 01:26:58 33° 20° (NNE) 01:37:15 29.354- 29.394
POPSAT HIP 1 01 Apr 01:18:48 01:22:11 23° 294° (WNW) 01:25:30 437.405
SO-50 01 Apr 01:19:22 01:22:23 16° 29° (NNE) 01:25:30 436.795
KKS-1 01 Apr 01:19:38 01:19:48 10° 58° (ENE) 01:20:13 437.445
TISAT 1 01 Apr 01:24:30 01:28:03 25° 266° (W) 01:31:32 437.305
NANOSAT C BR1 01 Apr 01:28:32 01:31:35 19° 295° (WNW) 01:34:31 145.865
POLYITAN 1 01 Apr 01:35:32 01:38:17 16° 297° (WNW) 01:40:52 437.675
YUBILEINY 01 Apr 01:38:05 01:46:52 69° 266° (W) 01:55:30 435.215
STARS 01 Apr 01:43:51 01:45:16 12° 59° (ENE) 01:46:53 437.465
SPROUT 01 Apr 01:46:27 01:48:51 14° 272° (W) 01:51:04 437.525
SWISSCUBE 01 Apr 01:48:10 01:53:00 84° 257° (WSW) 01:57:50 437.505
BEESAT 01 Apr 01:50:38 01:55:27 86° 254° (WSW) 02:00:19 436.000
ISS 01 Apr 02:10:18 02:13:09 27° 7° (N) 02:16:00 145.825
Oscar 19 01 Apr 02:22:45 02:27:49 54° 99° (E) 02:32:55 437.125/150
ITUPSAT 1 01 Apr 02:40:07 02:44:23 30° 265° (W) 02:48:38 437.325
O/OREOS (USA 219) 01 Apr 02:45:22 02:46:16 11° 98° (E) 02:47:26 437.305
KKS-1 01 Apr 02:51:19 02:55:45 79° 75° (ENE) 03:00:12 437.445
SO-50 01 Apr 02:59:00 03:03:56 63° 50° (NE) 03:08:50 436.795
Gurwin Techsat 1B 01 Apr 03:00:25 03:05:11 33° 95° (E) 03:09:58 435.225
MOZHAYETS 4 01 Apr 03:14:25 03:14:39 10° 58° (ENE) 03:15:08
STARS 01 Apr 03:16:45 03:21:08 87° 257° (WSW) 03:25:32 437.465
HORYU 2 01 Apr 03:20:40 03:21:14 10° 86° (E) 03:22:06 437.375
RS-15 01 Apr 03:30:21 03:41:47 72° 49° (NE) 03:53:45 29.354- 29.394
BEESAT 01 Apr 03:33:35 03:34:10 10° 275° (W) 03:34:25 436.000
ITAMSAT 1 01 Apr 03:34:24 03:39:37 78° 103° (ESE) 03:44:48 435.822/435.867
YUBILEINY 01 Apr 03:37:50 03:42:10 14° 286° (WNW) 03:45:54 435.215
AO-7 01 Apr 03:42:43 03:47:51 18° 86° (E) 03:53:23 29.400- 29.500
ISS 01 Apr 03:46:41 03:49:55 70° 26° (NNE) 03:53:09 145.825
AIST 1 01 Apr 03:55:26 03:59:33 41° 93° (E) 04:03:42
JAS-2 01 Apr 03:59:35 04:05:10 22° 85° (E) 04:10:42 435.910
Oscar 19 01 Apr 04:02:50 04:06:52 23° 297° (WNW) 04:10:48 437.125/150
O/OREOS (USA 219) 01 Apr 04:20:27 04:25:03 86° 294° (WNW) 04:29:41 437.305
AUBIESAT-1 01 Apr 04:25:46 04:29:13 25° 59° (ENE) 04:32:58 437.475
KKS-1 01 Apr 04:31:42 04:33:04 11° 274° (W) 04:34:11 437.445
Gurwin Techsat 1B 01 Apr 04:40:21 04:45:13 36° 293° (WNW) 04:50:00 435.225
SO-50 01 Apr 04:40:27 04:44:06 20° 248° (WSW) 04:47:36 436.795
MOZHAYETS 4 01 Apr 04:46:31 04:51:08 74° 74° (ENE) 04:55:48
M-CUBED/EXP-1 PRIME 01 Apr 04:52:02 04:56:03 48° 65° (ENE) 05:00:26 437.505
HORYU 2 01 Apr 04:54:05 04:58:38 86° 286° (WNW) 05:03:09 437.375
VERMONT LUNAR 01 Apr 04:57:13 04:59:37 18° 159° (SSE) 05:02:02 437.305
CUBESAT XI-V 01 Apr 05:07:47 05:09:40 13° 60° (ENE) 05:11:45 437.345
ITAMSAT 1 01 Apr 05:15:18 05:18:35 17° 301° (WNW) 05:21:39 435.822/435.867
ISS 01 Apr 05:23:40 05:26:02 19° 223° (SW) 05:28:21 145.825
STRAND 1 01 Apr 05:26:44 05:28:57 13° 57° (ENE) 05:31:24 437.568
AO-7 01 Apr 05:33:41 05:42:03 84° 108° (ESE) 05:50:22 29.400- 29.500
AIST 1 01 Apr 05:34:06 05:37:26 20° 291° (WNW) 05:40:41
RS-15 01 Apr 05:43:21 05:53:40 38° 251° (WSW) 06:04:05 29.354- 29.394
JAS-2 01 Apr 05:43:25 05:51:14 81° 287° (WNW) 05:58:21 435.910
GONETS M04 01 Apr 05:55:41 06:04:01 44° 70° (ENE) 06:12:24
AUBIESAT-1 01 Apr 05:59:57 06:03:51 38° 258° (WSW) 06:08:04 437.475
PHONESAT 2.4 01 Apr 06:01:42 06:04:30 22° 161° (SSE) 06:07:19 2401.200-2431.200
O/OREOS (USA 219) 01 Apr 06:02:55 06:05:17 13° 315° (NW) 06:07:30 437.305
PRISM 01 Apr 06:16:14 06:20:12 41° 70° (ENE) 06:24:13 437.425
CUTE-I 01 Apr 06:17:56 06:21:26 18° 89° (E) 06:25:06 437.470
Cubesat XI-IV 01 Apr 06:18:57 06:22:33 19° 89° (E) 06:26:19 437.490
MOZHAYETS 4 01 Apr 06:26:49 06:29:00 13° 274° (W) 06:30:57
M-CUBED/EXP-1 PRIME 01 Apr 06:28:17 06:31:17 19° 265° (W) 06:34:22 437.505
DANDE 01 Apr 06:31:14 06:31:43 10° 67° (ENE) 06:32:30 436.750
HORYU 2 01 Apr 06:33:08 06:34:38 11° 301° (WNW) 06:35:56 437.375
VERMONT LUNAR 01 Apr 06:33:45 06:36:49 34° 176° (S) 06:39:54 437.305
CUBESAT XI-V 01 Apr 06:41:46 06:46:30 89° 264° (W) 06:51:13 437.345
STRAND 1 01 Apr 07:02:18 07:07:27 83° 73° (ENE) 07:12:38 437.568
CUSAT 1 01 Apr 07:03:23 07:07:16 30° 74° (ENE) 07:12:17 437.405
AO-7 01 Apr 07:27:26 07:34:04 27° 308° (NW) 07:40:31 29.400- 29.500
JAS-2 01 Apr 07:29:44 07:35:09 20° 307° (NW) 07:40:05 435.910
PHONESAT 2.4 01 Apr 07:39:07 07:42:24 36° 178° (S) 07:45:41 2401.200-2431.200
GONETS M04 01 Apr 07:52:40 08:00:59 46° 272° (W) 08:09:11
PRISM 01 Apr 07:52:47 07:55:54 19° 268° (W) 07:58:56 437.425
CUTE-I 01 Apr 07:56:47 08:02:04 65° 288° (WNW) 08:07:19 437.470
Cubesat XI-IV 01 Apr 07:57:54 08:03:11 63° 289° (WNW) 08:08:26 437.490
HO-68 01 Apr 08:06:57 08:08:37 11° 81° (E) 08:10:52 435.675
DANDE 01 Apr 08:11:05 08:15:12 86° 262° (W) 08:20:51 436.750
VERMONT LUNAR 01 Apr 08:11:11 08:14:07 28° 192° (SSW) 08:17:02 437.305
CUBESAT XI-V 01 Apr 08:23:55 08:24:44 10° 276° (W) 08:25:15 437.345
GOMX 1 01 Apr 08:36:20 08:38:30 14° 89° (E) 08:40:54 467.674
CANX-2 01 Apr 08:37:43 08:39:32 13° 87° (E) 08:41:33 2200.000
STRAND 1 01 Apr 08:44:50 08:47:25 13° 274° (W) 08:49:43 437.568
CUSAT 1 01 Apr 08:45:57 08:50:03 33° 263° (W) 08:55:13 437.405
CUTE 1.7 + AOD 2 01 Apr 08:50:34 08:53:09 16° 89° (E) 08:55:53 437.475
BEESAT 3 01 Apr 09:03:34 09:05:50 15° 112° (ESE) 09:08:16 437.485
AAUSAT CUBESAT 2 01 Apr 09:03:51 09:05:40 13° 87° (E) 09:07:43 437.432
CINEMA 3 01 Apr 09:06:29 09:06:56 10° 86° (E) 09:07:40 145.822/145.860
SEEDS 01 Apr 09:14:36 09:18:01 23° 92° (E) 09:21:31 437.485
PHONESAT 2.4 01 Apr 09:17:18 09:20:19 27° 195° (SSW) 09:23:22 2401.200-2431.200
COMPASS 1 01 Apr 09:32:06 09:35:49 29° 95° (E) 09:39:34 437.405
CUTE-I 01 Apr 09:39:50 09:41:15 11° 306° (NW) 09:42:24 437.470
Cubesat XI-IV 01 Apr 09:41:12 09:42:22 11° 306° (NW) 09:43:16 437.490
BRITE-PL 01 Apr 09:41:58 09:46:12 84° 284° (WNW) 09:50:38 437.365/2234.400
DOVE 4 01 Apr 09:46:39 09:50:55 49° 100° (E) 09:55:23 437.250
VERMONT LUNAR 01 Apr 09:50:09 09:51:11 11° 208° (SSW) 09:52:09 437.305
HO-68 01 Apr 09:50:48 09:57:59 65° 103° (ESE) 10:05:08 435.675
Oscar 11 01 Apr 09:51:17 09:54:31 20° 91° (E) 09:57:50 145.826/435.025
UNISAT 6 01 Apr 09:53:28 09:56:56 25° 66° (ENE) 10:00:32 437.425
QB50P1 01 Apr 09:55:29 09:57:40 14° 62° (ENE) 10:00:00 145.935-145.965
DUCHIFAT 1 01 Apr 09:55:34 09:57:40 14° 62° (ENE) 09:59:56 145.980
DELFI C3 01 Apr 09:58:44 10:01:32 18° 91° (E) 10:04:26 145.870
AIST 2 01 Apr 09:59:42 10:02:30 18° 112° (ESE) 10:05:27 435.215
TIGRISAT 01 Apr 10:01:59 10:05:39 29° 68° (ENE) 10:09:26 435.000
BEESAT 2 01 Apr 10:06:06 10:10:07 53° 121° (ESE) 10:14:12 435.950
FUNcube-1 01 Apr 10:08:15 10:11:03 17° 90° (E) 10:14:03 145.935
QB50P2 01 Apr 10:10:26 10:13:30 20° 65° (ENE) 10:16:40 145.880/145.840
CANX-2 01 Apr 10:11:42 10:16:01 67° 286° (WNW) 10:20:17 2200.000
GOMX 1 01 Apr 10:12:50 10:17:05 61° 286° (WNW) 10:21:33 467.674
UWE-3 01 Apr 10:20:06 10:23:54 28° 94° (E) 10:27:50 435.000/436.395/437.385
BUGSAT 1 01 Apr 10:21:09 10:23:57 18° 65° (ENE) 10:26:50 437.445
ZACube-1 01 Apr 10:21:50 10:25:22 23° 93° (E) 10:29:01 437.345
CUTE 1.7 + AOD 2 01 Apr 10:25:14 10:29:27 53° 287° (WNW) 10:33:39 437.475
CUBEBUG 2 01 Apr 10:31:27 10:35:42 43° 98° (E) 10:40:05 437.445
ANTELSAT 01 Apr 10:33:17 10:37:31 62° 74° (ENE) 10:41:52 437.575/2403.000
POPSAT HIP 1 01 Apr 10:37:35 10:41:25 36° 70° (ENE) 10:45:18 437.405
AAUSAT CUBESAT 2 01 Apr 10:37:37 10:41:49 63° 286° (WNW) 10:45:59 437.432
AISAT 01 Apr 10:37:47 10:38:49 11° 86° (E) 10:40:06 437.250
BEESAT 3 01 Apr 10:39:23 10:43:27 63° 308° (NW) 10:47:35 437.485
CINEMA 3 01 Apr 10:40:21 10:44:48 87° 282° (WNW) 10:49:28 145.822/145.860
NANOSAT C BR1 01 Apr 10:46:39 10:50:38 44° 71° (ENE) 10:54:41 145.865
HUMSAT D 01 Apr 10:47:55 10:51:13 22° 93° (E) 10:54:37 437.325/437.525
SEEDS 01 Apr 10:50:01 10:53:56 35° 290° (WNW) 10:57:49 437.485
POLYITAN 1 01 Apr 10:53:41 10:57:47 54° 73° (ENE) 11:01:56 437.675
50 SAT 01 Apr 10:58:06 11:00:50 18° 91° (E) 11:03:41 437.505
UKube-1 01 Apr 10:58:23 11:02:24 36° 97° (E) 11:06:24 .
COMPASS 1 01 Apr 11:07:48 11:11:29 28° 292° (WNW) 11:15:04 437.405
DX 1 01 Apr 11:12:43 11:16:59 54° 101° (E) 11:21:14 434.975-435.025
ESTCUBE 1 01 Apr 11:16:42 11:19:17 15° 89° (E) 11:22:02 437.505/2401.250
DOVE 4 01 Apr 11:25:21 11:28:26 19° 295° (WNW) 11:31:31 437.250
Oscar 11 01 Apr 11:26:47 11:30:55 41° 289° (WNW) 11:35:01 145.826/435.025
DUCHIFAT 1 01 Apr 11:28:53 11:33:04 65° 259° (W) 11:37:15 145.980
QB50P1 01 Apr 11:28:55 11:33:06 63° 259° (W) 11:37:18 145.935-145.965
UNISAT 6 01 Apr 11:29:42 11:33:36 34° 264° (W) 11:37:35 437.425
DELFI C3 01 Apr 11:33:03 11:36:57 42° 289° (WNW) 11:40:48 145.870
AIST 2 01 Apr 11:36:31 11:40:44 57° 309° (NW) 11:44:59 435.215
TIGRISAT 01 Apr 11:38:41 11:42:24 28° 266° (W) 11:46:09 435.000
HO-68 01 Apr 11:39:12 11:45:17 30° 302° (WNW) 11:51:13 435.675
FUNcube-1 01 Apr 11:43:27 11:47:44 52° 288° (WNW) 11:52:06 145.935
QB50P2 01 Apr 11:45:10 11:49:11 41° 262° (W) 11:53:12 145.880/145.840
BEESAT 2 01 Apr 11:45:14 11:48:34 22° 320° (NW) 11:51:52 435.950
BUGSAT 1 01 Apr 11:55:12 11:59:11 44° 261° (W) 12:03:07 437.445
CUBEBUG 1 01 Apr 11:56:22 12:00:17 33° 96° (E) 12:04:13 437.445
UWE-3 01 Apr 11:56:30 12:00:28 32° 291° (WNW) 12:04:29 435.000/436.395/437.385
ZACube-1 01 Apr 11:57:47 12:01:51 37° 290° (WNW) 12:05:59 437.345
Oscar 19 01 Apr 12:05:30 12:08:11 15° 58° (ENE) 12:11:05 437.125/150
VELOX 1 01 Apr 12:05:32 12:09:58 87° 104° (ESE) 12:14:23 145.980
CUBEBUG 2 01 Apr 12:08:44 12:12:11 22° 294° (WNW) 12:15:37 437.445
AISAT 01 Apr 12:11:40 12:16:06 79° 285° (WNW) 12:20:29 437.250
ANTELSAT 01 Apr 12:12:39 12:14:52 13° 273° (W) 12:16:53 437.575/2403.000
POPSAT HIP 1 01 Apr 12:14:07 12:17:27 22° 267° (W) 12:20:42 437.405
CINEMA 3 01 Apr 12:20:07 12:21:28 11° 299° (WNW) 12:22:36 145.822/145.860
BEESAT 3 01 Apr 12:20:26 12:22:23 13° 330° (NNW) 12:24:14 437.485
HUMSAT D 01 Apr 12:23:10 12:27:08 37° 290° (WNW) 12:31:05 437.325/437.525
NANOSAT C BR1 01 Apr 12:23:50 12:26:47 18° 269° (W) 12:29:36 145.865
POLYITAN 1 01 Apr 12:31:39 12:34:08 15° 271° (W) 12:36:26 437.675
50 SAT 01 Apr 12:32:09 12:35:58 41° 289° (WNW) 12:39:48 437.505
UKube-1 01 Apr 12:34:53 12:38:24 24° 294° (WNW) 12:41:49 .
YUBILEINY 01 Apr 12:46:22 12:53:32 30° 83° (E) 13:00:57 435.215
Gurwin Techsat 1B 01 Apr 12:48:48 12:49:42 11° 54° (NE) 12:50:53 435.225
O/OREOS (USA 219) 01 Apr 12:49:26 12:53:30 31° 56° (NE) 12:57:34 437.305
DX 1 01 Apr 12:49:59 12:52:52 17° 297° (WNW) 12:55:36 434.975-435.025
ESTCUBE 1 01 Apr 12:52:10 12:56:38 59° 287° (WNW) 13:01:03 437.505/2401.250
TISAT 1 01 Apr 13:06:14 13:10:12 41° 98° (E) 13:14:12 437.305
ITAMSAT 1 01 Apr 13:16:51 13:20:43 22° 62° (ENE) 13:24:43 435.822/435.867
AIST 2 01 Apr 13:18:19 13:20:17 13° 331° (NNW) 13:22:09 435.215
SPROUT 01 Apr 13:28:31 13:32:49 87° 97° (E) 13:37:07 437.525
PCSat 01 Apr 13:28:52 13:32:23 18° 107° (ESE) 13:36:06 145.827
CUBEBUG 1 01 Apr 13:32:57 13:36:34 26° 293° (WNW) 13:40:05 437.445
Oscar 19 01 Apr 13:41:48 13:46:56 86° 260° (W) 13:52:06 437.125/150
VELOX 1 01 Apr 13:44:17 13:45:57 12° 301° (WNW) 13:47:25 145.980
SWISSCUBE 01 Apr 13:47:11 13:50:47 21° 92° (E) 13:54:29 437.505
BEESAT 01 Apr 13:49:35 13:53:07 21° 91° (E) 13:56:47 436.000
AIST 1 01 Apr 14:01:39 14:03:46 14° 65° (ENE) 14:06:03
JAS-2 01 Apr 14:15:35 14:19:29 16° 49° (NE) 14:23:49 435.910
HORYU 2 01 Apr 14:20:27 14:22:44 14° 61° (ENE) 14:25:10 437.375
Gurwin Techsat 1B 01 Apr 14:23:31 14:28:46 64° 72° (ENE) 14:34:03 435.225
O/OREOS (USA 219) 01 Apr 14:28:54 14:32:54 30° 255° (WSW) 14:36:50 437.305
ITUPSAT 1 01 Apr 14:37:49 14:42:35 59° 101° (E) 14:47:18 437.325
YUBILEINY 01 Apr 14:41:03 14:49:48 66° 283° (WNW) 14:58:37 435.215
KKS-1 01 Apr 14:42:03 14:44:04 13° 88° (E) 14:46:16 437.445
TISAT 1 01 Apr 14:42:38 14:45:46 20° 295° (WNW) 14:48:49 437.305
AO-7 01 Apr 14:43:45 14:50:52 34° 56° (NE) 14:58:08 29.400- 29.500
ITAMSAT 1 01 Apr 14:54:44 14:59:53 57° 259° (W) 15:05:02 435.822/435.867
STARS 01 Apr 15:05:46 15:08:13 15° 89° (E) 15:10:50 437.465
SPROUT 01 Apr 15:06:59 15:08:20 11° 300° (WNW) 15:09:28 437.525
PCSat 01 Apr 15:09:52 15:15:17 72° 304° (NW) 15:20:45 145.827
SWISSCUBE 01 Apr 15:24:19 15:28:56 47° 290° (WNW) 15:33:28 437.505
Oscar 19 01 Apr 15:25:33 15:27:11 11° 275° (W) 15:28:30 437.125/150
BEESAT 01 Apr 15:26:39 15:31:17 48° 289° (WNW) 15:35:51 436.000
AIST 1 01 Apr 15:37:42 15:41:58 61° 264° (W) 15:46:10
HORYU 2 01 Apr 15:54:27 15:58:52 72° 257° (WSW) 16:03:21 437.375
JAS-2 01 Apr 15:56:03 16:03:03 62° 70° (ENE) 16:10:44 435.910
Gurwin Techsat 1B 01 Apr 16:05:32 16:09:17 19° 271° (W) 16:12:51 435.225
ITUPSAT 1 01 Apr 16:16:43 16:20:05 19° 298° (WNW) 16:23:20 437.325
KKS-1 01 Apr 16:16:49 16:21:15 68° 286° (WNW) 16:25:41 437.445
AO-7 01 Apr 16:35:01 16:43:17 64° 256° (WSW) 16:51:32 29.400- 29.500
STARS 01 Apr 16:40:46 16:45:07 59° 287° (WNW) 16:49:27 437.465
MOZHAYETS 4 01 Apr 16:40:53 16:43:34 15° 88° (E) 16:46:25
YUBILEINY 01 Apr 16:43:50 16:48:54 15° 309° (NW) 16:53:31 435.215
BEESAT 2 01 Apr 16:46:48 16:48:48 13° 31° (NNE) 16:50:53 435.950
PCSat 01 Apr 16:56:09 16:59:44 17° 326° (NNW) 17:03:13 145.827
BEESAT 3 01 Apr 17:18:59 17:22:18 23° 40° (NE) 17:25:37 437.485
SO-50 01 Apr 17:19:04 17:20:20 11° 108° (ESE) 17:21:53 436.795
AUBIESAT-1 01 Apr 17:40:03 17:42:48 16° 93° (E) 17:45:43 437.475
CUTE-I 01 Apr 17:41:30 17:46:21 37° 67° (ENE) 17:51:17 437.470
JAS-2 01 Apr 17:42:22 17:48:38 31° 271° (W) 17:55:12 435.910
Cubesat XI-IV 01 Apr 17:42:42 17:47:36 39° 67° (ENE) 17:52:35 437.490
RS-15 01 Apr 17:58:25 18:07:25 33° 107° (ESE) 18:16:51 29.354- 29.394
M-CUBED/EXP-1 PRIME 01 Apr 18:06:30 18:10:47 31° 99° (E) 18:15:00 437.505
MOZHAYETS 4 01 Apr 18:16:40 18:21:18 62° 286° (WNW) 18:25:51
AIST 2 01 Apr 18:18:13 18:21:52 27° 42° (NE) 18:25:31 435.215
BEESAT 2 01 Apr 18:23:37 18:27:47 66° 53° (NE) 18:31:51 435.950
AO-7 01 Apr 18:34:37 18:38:00 12° 278° (W) 18:40:45 29.400- 29.500
CUBESAT XI-V 01 Apr 18:37:18 18:40:36 20° 90° (E) 18:44:01 437.345
HO-68 01 Apr 18:38:30 18:41:50 14° 48° (NE) 18:45:29 435.675
SO-50 01 Apr 18:55:30 19:00:09 85° 125° (SE) 19:05:00 436.795
BEESAT 3 01 Apr 18:56:37 19:00:37 50° 240° (WSW) 19:04:32 437.485
GONETS M04 01 Apr 18:59:35 19:07:38 46° 88° (E) 19:15:52
STRAND 1 01 Apr 19:11:20 19:15:21 23° 92° (E) 19:19:27 437.568
AUBIESAT-1 01 Apr 19:13:20 19:18:10 70° 291° (WNW) 19:22:51 437.475
BRITE-PL 01 Apr 19:18:54 19:21:33 16° 64° (ENE) 19:24:15 437.365/2234.400
CUTE-I 01 Apr 19:21:41 19:26:30 33° 265° (W) 19:31:17 437.470
Cubesat XI-IV 01 Apr 19:23:01 19:27:48 31° 265° (W) 19:32:32 437.490
PRISM 01 Apr 19:31:54 19:35:58 50° 100° (E) 19:40:00 437.425
CANX-2 01 Apr 19:33:27 19:35:23 13° 62° (ENE) 19:37:30 2200.000
M-CUBED/EXP-1 PRIME 01 Apr 19:41:12 19:45:40 36° 297° (WNW) 19:50:00 437.505
CUTE 1.7 + AOD 2 01 Apr 19:46:08 19:48:41 16° 63° (ENE) 19:51:24 437.475
GOMX 1 01 Apr 19:46:56 19:49:58 19° 66° (ENE) 19:53:01 467.674
AIST 2 01 Apr 19:56:35 20:00:38 42° 241° (WSW) 20:04:36 435.215
AAUSAT CUBESAT 2 01 Apr 19:57:36 19:59:25 13° 62° (ENE) 20:01:24 437.432
BEESAT 2 01 Apr 20:03:13 20:05:27 14° 249° (WSW) 20:07:32 435.950
RS-15 01 Apr 20:08:00 20:18:55 76° 310° (NW) 20:30:08 29.354- 29.394
SEEDS 01 Apr 20:09:10 20:12:26 23° 66° (ENE) 20:15:48 437.485
CINEMA 3 01 Apr 20:10:35 20:12:06 12° 61° (ENE) 20:13:49 145.822/145.860
CUBESAT XI-V 01 Apr 20:13:53 20:18:22 47° 289° (WNW) 20:22:46 437.345
CUSAT 1 01 Apr 20:18:13 20:19:37 14° 93° (E) 20:21:06 437.405
HO-68 01 Apr 20:21:16 20:28:16 60° 68° (ENE) 20:35:21 435.675
COMPASS 1 01 Apr 20:25:46 20:29:17 27° 68° (ENE) 20:32:54 437.405
SO-50 01 Apr 20:37:47 20:41:22 20° 326° (NNW) 20:44:57 436.795
Oscar 11 01 Apr 20:48:27 20:51:43 22° 65° (ENE) 20:55:04 145.826/435.025
DELFI C3 01 Apr 20:49:14 20:51:44 16° 64° (ENE) 20:54:23 145.870
STRAND 1 01 Apr 20:49:56 20:54:50 47° 290° (WNW) 20:59:42 437.568
AUBIESAT-1 01 Apr 20:50:21 20:52:10 12° 309° (NW) 20:53:47 437.475
DOVE 4 01 Apr 20:54:52 20:59:03 63° 75° (ENE) 21:03:11 437.250
BRITE-PL 01 Apr 20:55:18 20:59:48 57° 260° (W) 21:04:02 437.365/2234.400
GONETS M04 01 Apr 20:56:21 21:04:35 44° 290° (WNW) 21:12:51
CANX-2 01 Apr 21:06:35 21:10:49 71° 258° (WSW) 21:15:06 2200.000
FUNcube-1 01 Apr 21:06:56 21:09:34 17° 64° (ENE) 21:12:22 145.935
PRISM 01 Apr 21:08:20 21:11:07 17° 297° (WNW) 21:13:46 437.425
UWE-3 01 Apr 21:19:55 21:23:26 28° 68° (ENE) 21:27:02 435.000/436.395/437.385
CUTE 1.7 + AOD 2 01 Apr 21:20:03 21:24:14 56° 261° (W) 21:28:26 437.475
ZACube-1 01 Apr 21:20:32 21:23:48 23° 67° (ENE) 21:27:11 437.345
GOMX 1 01 Apr 21:23:44 21:27:55 43° 262° (W) 21:31:56 467.674
DANDE 01 Apr 21:28:49 21:31:35 61° 283° (WNW) 21:34:10 436.750
AAUSAT CUBESAT 2 01 Apr 21:30:23 21:34:33 71° 259° (WSW) 21:38:47 437.432
VELOX 1 01 Apr 21:31:45 21:33:36 13° 60° (ENE) 21:35:38 145.980
CUBEBUG 2 01 Apr 21:32:13 21:36:09 44° 72° (ENE) 21:40:10 437.445
AISAT 01 Apr 21:37:26 21:39:51 15° 62° (ENE) 21:42:24 437.250
HUMSAT D 01 Apr 21:42:29 21:45:30 21° 66° (ENE) 21:48:39 437.325/437.525
SEEDS 01 Apr 21:44:09 21:48:05 36° 264° (W) 21:52:01 437.485
CINEMA 3 01 Apr 21:44:40 21:48:49 73° 257° (WSW) 21:53:00 145.822/145.860
50 SAT 01 Apr 21:47:05 21:49:18 15° 64° (ENE) 21:51:40 437.505
UKube-1 01 Apr 21:55:19 21:59:24 42° 70° (ENE) 22:03:31 .
CUSAT 1 01 Apr 22:00:51 22:02:21 14° 291° (WNW) 22:03:48 437.405
COMPASS 1 01 Apr 22:01:14 22:04:56 29° 265° (W) 22:08:38 437.405
ISS 01 Apr 22:03:03 22:06:06 38° 143° (SE) 22:09:09 145.825
DX 1 01 Apr 22:10:15 22:14:34 63° 73° (ENE) 22:18:53 434.975-435.025
HO-68 01 Apr 22:10:19 22:16:29 29° 267° (W) 22:22:32 435.675
PCSat 01 Apr 22:12:43 22:17:21 28° 43° (NE) 22:22:03 145.827
ESTCUBE 1 01 Apr 22:18:29 22:21:43 20° 64° (ENE) 22:25:05 437.505/2401.250
DELFI C3 01 Apr 22:22:36 22:26:34 50° 261° (W) 22:30:36 145.870
Oscar 11 01 Apr 22:23:35 22:27:40 40° 262° (W) 22:31:47 145.826/435.025
ANTELSAT 01 Apr 22:24:56 22:26:37 12° 87° (E) 22:28:35 437.575/2403.000
DOVE 4 01 Apr 22:35:33 22:37:22 12° 272° (W) 22:38:57 437.250
